[[{"header":{"parameterUnit":"m.s-1","parameterCategory":1,"la1":30.2991,"la2":30.254,"lo1":-89.0895,"lo2":-89.0444,"dy":0.0017,"dx":0.0017,"nx":28,"ny":28,"refTime":"2025-03-22T09:00:00:Z","depth":0,"parameterNumber":2,"parameterNumberName":"U-component_of_WINDS"},"data":[0,0,0,0,0,0,0,0,0,0,0,0,0,0,0,0,0,0,0,0,0,0,0,0,0,0,0,0,0,0,0,0,0,0,0,0,0,0,0,0,0,0,0,0,0,0,0,0,0,0,0,0,0,0,0,0,0,0,-1.7869,-1.7869,0,-1.7849,-1.7849,-1.7848,-1.7834,-1.7834,-1.7834,-1.7834,-1.7812,-1.7812,-1.7811,0,0,0,0,0,0,0,0,0,0,0,0,0,-1.7895,-1.7895,-1.7869,-1.7869,-1.7869,-1.7849,-1.7849,-1.7848,-1.7834,-1.7834,-1.7834,-1.7834,-1.7812,-1.7812,-1.7811,0,0,0,0,0,0,0,0,0,0,0,0,0,-1.788,-1.7895,-1.7869,-1.7859,-1.7858,-1.7849,-1.7849,-1.7848,-1.7834,-1.7834,-1.7834,-1.7834,-1.7812,-1.7812,-1.7811,-1.781,0,0,-1.7809,-1.7808,0,0,0,0,0,0,0,0,-1.7881,-1.7879,-1.7861,-1.786,-1.7859,-1.7844,-1.785,-1.7835,-1.7834,-1.7843,-1.7834,-1.7834,-1.7823,-1.7821,-1.7818,-1.7809,-1.7808,-1.7809,-1.7808,-1.7808,-1.7808,0,0,0,0,0,0,0,-1.7882,-1.788,-1.7861,-1.7861,-1.7859,-1.7856,-1.7853,-1.7847,-1.7834,-1.7842,-1.7841,-1.7839,-1.7822,-1.7818,-1.7817,-1.7807,-1.7809,-1.7808,-1.7808,-1.7807,-1.7797,-1.7797,0,0,0,0,0,0,-1.7885,-1.7881,-1.7862,-1.786,-1.787,-1.7855,-1.7853,-1.7849,-1.7834,-1.7832,-1.7839,-1.7839,-1.782,-1.7818,-1.7816,-1.7814,-1.7808,-1.7807,-1.7807,-1.7797,-1.7797,-1.7797,0,0,0,0,0,0,-1.7886,-1.7883,-1.7863,-1.7871,-1.7868,-1.7855,-1.7851,-1.7848,-1.7845,-1.7832,-1.7829,-1.7838,-1.7819,-1.7817,-1.7812,-1.7813,-1.7807,-1.7806,-1.7797,-1.7797,-1.7797,-1.7809,0,0,0,0,0,0,-1.7886,-1.7884,-1.7883,-1.7871,-1.7867,-1.7858,-1.7851,-1.7848,-1.7844,-1.7843,-1.783,-1.7828,-1.7819,-1.7813,-1.7811,-1.7812,-1.7806,-1.7797,-1.7797,-1.7797,-1.7809,-1.781,-1.7811,0,0,0,0,0,-1.7887,-1.7887,-1.7883,-1.7881,-1.7866,-1.7859,-1.7857,-1.7847,-1.7844,-1.7843,-1.7835,-1.7828,-1.7813,-1.7812,-1.781,-1.7811,-1.7796,-1.7797,-1.7797,-1.7808,-1.781,-1.7811,0,0,0,0,0,0,-1.7899,-1.7885,-1.7881,-1.7876,-1.7869,-1.7856,-1.7855,-1.7849,-1.7842,-1.7841,-1.7829,-1.7827,-1.7822,-1.7816,-1.7815,-1.7809,-1.7804,-1.7804,-1.7813,-1.7815,-1.7816,-1.7817,-1.7805,0,0,0,0,0,-1.7902,-1.7897,-1.7884,-1.7882,-1.7878,-1.7867,-1.7864,-1.7857,-1.7849,-1.7845,-1.7837,-1.7829,-1.7822,-1.7818,-1.7812,-1.7808,-1.7805,-1.7808,-1.7809,-1.781,-1.781,-1.7807,-1.7808,-1.7799,-1.7799,-1.7799,0,0,-1.7906,-1.7898,-1.7895,-1.7884,-1.7877,-1.7872,-1.7865,-1.786,-1.7856,-1.7844,-1.7839,-1.7832,-1.7823,-1.7818,-1.7816,-1.7813,-1.7812,-1.781,-1.7811,-1.781,-1.7808,-1.7809,-1.781,-1.7799,-1.7799,-1.7799,0,0,-1.7911,-1.7904,-1.7901,-1.7895,-1.7886,-1.7879,-1.7878,-1.7867,-1.7862,-1.7856,-1.7848,-1.7843,-1.7832,-1.7826,-1.7821,-1.7825,-1.7818,-1.7823,-1.7829,-1.7827,-1.7828,-1.7828,-1.783,-1.783,-1.7823,-1.7823,-1.7823,0,-1.7917,-1.791,-1.7901,-1.7896,-1.7892,-1.7882,-1.7879,-1.7873,-1.7862,-1.7859,-1.7856,-1.7843,-1.7836,-1.783,-1.7831,-1.7827,-1.7826,-1.7824,-1.7828,-1.7829,-1.7829,-1.783,-1.7831,-1.7824,-1.7824,-1.7824,-1.7824,0,-1.7918,-1.7913,-1.7912,-1.7902,-1.7897,-1.7893,-1.7884,-1.788,-1.7875,-1.7868,-1.7862,-1.7854,-1.7845,-1.7843,-1.7838,-1.7837,-1.7835,-1.7831,-1.7825,-1.7831,-1.7832,-1.7832,-1.7825,-1.7825,-1.7825,-1.7824,0,0,-1.7929,-1.7915,-1.7914,-1.791,-1.7899,-1.7895,-1.7891,-1.7883,-1.788,-1.7873,-1.787,-1.7861,-1.7857,-1.7852,-1.7845,-1.7844,-1.7848,-1.7839,-1.7839,-1.7841,-1.7846,-1.7849,-1.785,-1.7844,-1.7844,-1.7844,-1.7847,0,-1.7933,-1.7925,-1.7917,-1.7912,-1.7908,-1.7899,-1.7896,-1.7889,-1.7883,-1.7878,-1.7871,-1.7865,-1.786,-1.7857,-1.7855,-1.7848,-1.7848,-1.7847,-1.784,-1.784,-1.7842,-1.785,-1.7853,-1.7857,-1.7847,-1.7847,-1.7847,0,-1.7935,-1.7929,-1.7924,-1.7914,-1.7911,-1.7909,-1.7901,-1.7897,-1.7889,-1.7884,-1.7879,-1.7872,-1.7868,-1.7864,-1.7858,-1.7857,-1.7854,-1.785,-1.785,-1.7848,-1.7843,-1.7848,-1.7858,-1.7858,-1.7848,-1.7848,-1.7848,0,-1.7943,-1.7934,-1.7929,-1.7926,-1.7914,-1.7912,-1.7907,-1.7899,-1.7895,-1.7889,-1.7886,-1.788,-1.7876,-1.787,-1.7862,-1.786,-1.7857,-1.7852,-1.7853,-1.7853,-1.7852,-1.7852,-1.786,-1.7851,-1.7851,-1.7851,-1.7851,0,-1.7947,-1.7944,-1.7933,-1.793,-1.7927,-1.7918,-1.7915,-1.7909,-1.7903,-1.7899,-1.7891,-1.7887,-1.7877,-1.7872,-1.7866,-1.7862,-1.786,-1.7856,-1.7854,-1.7857,-1.7857,-1.7853,-1.7853,-1.7851,-1.7851,-1.7851,-1.7851,0,-1.7956,-1.7948,-1.7943,-1.7932,-1.793,-1.7928,-1.7919,-1.7916,-1.791,-1.7905,-1.7904,-1.7894,-1.7888,-1.788,-1.7871,-1.7867,-1.7863,-1.7861,-1.7866,-1.7865,-1.7866,-1.7866,-1.7872,-1.7872,-1.7863,-1.7863,-1.7864,0,-1.7958,-1.7956,-1.7946,-1.7943,-1.7938,-1.7933,-1.7929,-1.7921,-1.7917,-1.7909,-1.7907,-1.7901,-1.7895,-1.7886,-1.7878,-1.7872,-1.7869,-1.7871,-1.7867,-1.787,-1.7868,-1.7868,-1.7868,-1.7872,-1.7872,-1.7872,-1.7872,0,-1.7964,-1.7961,-1.7955,-1.7949,-1.7944,-1.7939,-1.7933,-1.7931,-1.7921,-1.7917,-1.7912,-1.7907,-1.7899,-1.7893,-1.7886,-1.788,-1.7875,-1.7874,-1.7873,-1.7875,-1.7878,-1.7876,-1.7868,-1.7873,-1.7873,-1.7873,-1.7873,-1.7873,-1.7969,-1.7967,-1.7959,-1.7954,-1.7949,-1.7944,-1.794,-1.7934,-1.7929,-1.7922,-1.7917,-1.7912,-1.7905,-1.7894,-1.789,-1.7885,-1.7883,-1.7882,-1.7882,-1.7882,-1.7883,-1.788,-1.7884,-1.7884,-1.7884,-1.7884,-1.7884,0,-1.7974,-1.7969,-1.7964,-1.7957,-1.7952,-1.7948,-1.7941,-1.7938,-1.7933,-1.7927,-1.7922,-1.7915,-1.791,-1.7902,-1.7895,-1.7893,-1.789,-1.7892,-1.7891,-1.789,-1.7885,-1.7886,-1.7894,-1.7894,-1.7894,-1.7894,-1.7894,-1.7894,-1.7976,-1.7972,-1.7968,-1.7961,-1.7956,-1.795,-1.7947,-1.7942,-1.7937,-1.793,-1.7926,-1.7921,-1.7914,-1.7907,-1.7902,-1.79,-1.7897,-1.79,-1.7897,-1.7892,-1.7891,-1.789,-1.789,-1.7899,-1.7899,-1.7902,-1.7902,-1.7902]},{"header":{"parameterUnit":"m.s-1","parameterCategory":1,"la1":30.2991,"la2":30.254,"lo1":-89.0895,"lo2":-89.0444,"dy":0.0017,"dx":0.0017,"nx":28,"ny":28,"refTime":"2025-03-22T09:00:00:Z","depth":0,"parameterNumber":3,"parameterNumberName":"V-component_of_WINDS"},"data":[0,0,0,0,0,0,0,0,0,0,0,0,0,0,0,0,0,0,0,0,0,0,0,0,0,0,0,0,0,0,0,0,0,0,0,0,0,0,0,0,0,0,0,0,0,0,0,0,0,0,0,0,0,0,0,0,0,0,6.0742,6.0743,0,6.0852,6.0854,6.0855,6.0868,6.0867,6.0866,6.0865,6.0974,6.0978,6.0982,0,0,0,0,0,0,0,0,0,0,0,0,0,6.0539,6.0543,6.0742,6.0743,6.0744,6.0852,6.0854,6.0855,6.0868,6.0867,6.0865,6.0864,6.0973,6.0977,6.0982,0,0,0,0,0,0,0,0,0,0,0,0,0,6.0636,6.0544,6.0741,6.0764,6.0767,6.0852,6.0854,6.0856,6.0868,6.0867,6.0865,6.0863,6.0971,6.0977,6.0983,6.1052,0,0,6.1001,6.1003,0,0,0,0,0,0,0,0,6.0631,6.0644,6.0759,6.0762,6.0766,6.0845,6.0823,6.0921,6.0869,6.083,6.0864,6.0863,6.0932,6.0941,6.0965,6.1057,6.1061,6.1001,6.1005,6.1007,6.1009,0,0,0,0,0,0,0,6.0624,6.0639,6.0785,6.0761,6.0765,6.0768,6.078,6.0841,6.0888,6.0833,6.0834,6.0847,6.0933,6.0959,6.0968,6.1063,6.1001,6.1006,6.101,6.1012,6.1221,6.1222,0,0,0,0,0,0,6.0613,6.0633,6.0782,6.0789,6.0693,6.0773,6.0786,6.0821,6.0888,6.0897,6.0849,6.0847,6.095,6.0961,6.0972,6.106,6.1007,6.1013,6.1016,6.1219,6.1221,6.1223,0,0,0,0,0,0,6.0609,6.0627,6.0777,6.0711,6.0731,6.0778,6.0817,6.0824,6.085,6.09,6.0908,6.0867,6.0949,6.0963,6.1033,6.1064,6.1015,6.1021,6.1216,6.1219,6.1222,6.1235,0,0,0,0,0,0,6.0603,6.0625,6.0652,6.0712,6.0734,6.0837,6.0819,6.0827,6.0861,6.086,6.0919,6.0927,6.0949,6.1024,6.1039,6.1071,6.1025,6.1214,6.1218,6.1221,6.1232,6.1238,6.1243,0,0,0,0,0,6.0596,6.0649,6.0653,6.0671,6.0769,6.0839,6.0851,6.0877,6.0863,6.0891,6.0923,6.0925,6.1058,6.1031,6.1048,6.1082,6.1212,6.1216,6.1221,6.1229,6.1236,6.1243,0,0,0,0,0,0,6.0589,6.0657,6.0662,6.0737,6.0782,6.0841,6.0876,6.0883,6.0933,6.093,6.0958,6.0972,6.1041,6.1068,6.1037,6.1154,6.1133,6.1141,6.1134,6.1141,6.1147,6.1139,6.103,0,0,0,0,0,6.0596,6.0648,6.0705,6.0765,6.0788,6.0828,6.0859,6.0876,6.0923,6.0942,6.0979,6.1024,6.1077,6.111,6.1161,6.1235,6.125,6.1268,6.1273,6.1277,6.1284,6.1329,6.1339,6.1238,6.1238,6.1238,0,0,6.0612,6.0656,6.0686,6.0765,6.0802,6.0855,6.0844,6.09,6.094,6.095,6.1019,6.1048,6.11,6.1174,6.1208,6.1199,6.1316,6.1283,6.1286,6.1291,6.1335,6.1344,6.1353,6.1241,6.124,6.124,0,0,6.0667,6.0705,6.0761,6.0799,6.0857,6.0884,6.0897,6.0956,6.0976,6.1047,6.1057,6.1104,6.1192,6.123,6.1261,6.1335,6.134,6.135,6.138,6.1423,6.1431,6.1438,6.1467,6.1477,6.1357,6.1357,6.1357,0,6.0679,6.076,6.0788,6.0846,6.0881,6.0895,6.0953,6.0988,6.1058,6.1082,6.1071,6.1185,6.1221,6.1305,6.1324,6.1347,6.1365,6.1344,6.1428,6.1436,6.1443,6.1471,6.1481,6.1358,6.1358,6.1358,6.1358,0,6.0773,6.083,6.0868,6.0939,6.0978,6.1034,6.1071,6.1108,6.1121,6.1149,6.1222,6.1266,6.1328,6.1348,6.136,6.1435,6.1428,6.1422,6.1402,6.1453,6.148,6.149,6.136,6.1359,6.1359,6.1359,0,0,6.0826,6.0914,6.0928,6.0962,6.1028,6.1072,6.1129,6.1192,6.1224,6.1272,6.1322,6.1398,6.1395,6.143,6.1447,6.1484,6.1544,6.1474,6.1476,6.1488,6.1632,6.1637,6.1649,6.1547,6.1549,6.1551,6.1628,0,6.0892,6.0997,6.1026,6.1115,6.1169,6.1185,6.1236,6.1282,6.131,6.136,6.139,6.1445,6.1435,6.1457,6.1495,6.1528,6.1573,6.1523,6.1595,6.1597,6.1583,6.1663,6.1668,6.1739,6.1639,6.164,6.1642,0,6.0981,6.1035,6.1131,6.1193,6.1217,6.1262,6.1323,6.137,6.1423,6.1441,6.1482,6.1496,6.1558,6.1534,6.1621,6.1586,6.1617,6.1638,6.1642,6.1651,6.1623,6.1676,6.1762,6.1773,6.1658,6.1657,6.1655,0,6.1014,6.111,6.1181,6.1208,6.1282,6.1314,6.1346,6.1397,6.1434,6.1486,6.1511,6.1569,6.1602,6.1647,6.1677,6.1656,6.1762,6.1739,6.1779,6.1779,6.1802,6.18,6.1896,6.1818,6.1818,6.1818,6.1818,0,6.1085,6.1143,6.1197,6.124,6.1307,6.1339,6.1404,6.1436,6.1482,6.1533,6.1548,6.1595,6.1631,6.1683,6.1706,6.1776,6.179,6.1807,6.1813,6.1807,6.1805,6.1828,6.1825,6.1821,6.182,6.182,6.1819,0,6.1133,6.1171,6.125,6.1314,6.1331,6.1378,6.1433,6.1476,6.1506,6.1569,6.1586,6.1633,6.1695,6.173,6.1806,6.1822,6.1901,6.1903,6.1884,6.1887,6.1926,6.1923,6.2042,6.206,6.1968,6.1969,6.197,0,6.1177,6.1223,6.1293,6.1329,6.1362,6.1419,6.1458,6.1491,6.1531,6.1597,6.1632,6.1696,6.1749,6.1847,6.1888,6.1947,6.1952,6.199,6.1961,6.1955,6.1956,6.1954,6.196,6.1995,6.1996,6.1997,6.1998,0,6.1251,6.1269,6.1324,6.1388,6.1434,6.1485,6.1535,6.1563,6.1605,6.1649,6.1714,6.1755,6.1836,6.1899,6.1963,6.1995,6.2004,6.2007,6.2019,6.2014,6.2003,6.2012,6.19,6.2004,6.2003,6.2003,6.2002,6.2002,6.13,6.1343,6.1401,6.1463,6.1505,6.1553,6.1598,6.1634,6.169,6.176,6.1776,6.1845,6.1899,6.1986,6.202,6.2075,6.2068,6.2085,6.209,6.2095,6.2098,6.1993,6.2086,6.2086,6.2086,6.2086,6.2085,0,6.1378,6.1416,6.1473,6.1545,6.1595,6.16,6.1657,6.1698,6.1759,6.1809,6.1862,6.1938,6.2001,6.2047,6.2111,6.2146,6.2152,6.2162,6.2161,6.2169,6.2099,6.2083,6.2157,6.2156,6.2156,6.2156,6.2156,6.2156,6.1424,6.1498,6.1523,6.1619,6.1656,6.1726,6.1758,6.1803,6.1844,6.1929,6.1982,6.2012,6.2061,6.213,6.2188,6.22,6.2223,6.2233,6.2246,6.218,6.2173,6.2166,6.2151,6.2238,6.2238,6.2311,6.2312,6.2313]}]]